M I D A S
Marine Information and Data Acquisition System
Tripno 955 of the Zeeleeuw from 2005-08-30 05:10:28 to 2005-08-30 14:19:17
Back to CruiseResearch ActivitiesStationsMapUnderway DataData graphs

EquipmentUnitsComments
TimeDGPSUTC
LatitudeDGPSDM.mWGS84
LongitudeDGPSDM.mWGS84
SpeedMeteo Stationm/sRelative wind speed
DirectionMeteo StationdegRelative wind direction
TemperatureMeteo Stationdeg CelciusAir temperature
PressureMeteo StationPaAtmospheric pressure
HumidityMeteo Station%Relative humidity
Missing or incorrect values are displayed as -999
Metereological data collected by the RV Zeeleeuw from 2005-08-30 04:52:01 to 2005-08-30 14:26:24
                                                                                    Next 1000 lines
Time Latitude Longitude Speed Direction Temperature Pressure Humidity
2005-08-30 04:52:10 51°13.598 2°56.09 0.6 13 14.6 102520 96
2005-08-30 04:52:14 51°13.599 2°56.087 0.3 13 14.6 102520 96
2005-08-30 04:52:21 51°13.6 2°56.081 0.3 13 14.6 102520 95
2005-08-30 04:52:26 51°13.601 2°56.076 0.1 13 14.6 102520 95
2005-08-30 04:52:31 51°13.602 2°56.071 0.1 13 14.6 102520 95
2005-08-30 04:52:37 51°13.604 2°56.064 0.1 13 14.6 102520 95
2005-08-30 04:52:42 51°13.606 2°56.058 -999 13 14.6 102520 95
2005-08-30 04:52:46 51°13.607 2°56.052 -999 13 14.6 102520 95
2005-08-30 04:52:51 51°13.609 2°56.046 -999 13 14.6 102520 95
2005-08-30 04:52:57 51°13.611 2°56.037 -999 10 14.6 102520 95
2005-08-30 04:53:02 51°13.613 2°56.03 0.1 11 14.6 102520 95
2005-08-30 04:53:07 51°13.615 2°56.023 0.9 239 14.6 102520 95
2005-08-30 04:53:11 51°13.617 2°56.016 1 210 14.6 102520 95
2005-08-30 04:53:17 51°13.619 2°56.007 1 203 14.6 102520 95
2005-08-30 04:53:22 51°13.622 2°56 0.9 205 14.6 102520 95
2005-08-30 04:53:26 51°13.624 2°55.992 1 211 14.6 102520 95
2005-08-30 04:53:31 51°13.627 2°55.985 0.9 210 14.6 102520 95
2005-08-30 04:53:36 51°13.629 2°55.977 0.8 210 14.6 102520 95
2005-08-30 04:53:41 51°13.632 2°55.969 1 211 14.6 102520 95
2005-08-30 04:53:46 51°13.635 2°55.96 0.9 211 14.6 102520 95
2005-08-30 04:53:51 51°13.638 2°55.952 1.1 210 14.6 102520 96
2005-08-30 04:53:56 51°13.642 2°55.944 1 216 14.6 102520 96
2005-08-30 04:54:01 51°13.645 2°55.936 1.1 217 14.6 102520 96
2005-08-30 04:54:06 51°13.648 2°55.929 0.9 216 14.6 102520 96
2005-08-30 04:54:11 51°13.652 2°55.921 0.8 216 14.6 102530 96
2005-08-30 04:54:17 51°13.656 2°55.912 0.8 215 14.6 102530 96
2005-08-30 04:54:22 51°13.66 2°55.904 1.5 214 14.7 102520 96
2005-08-30 04:54:26 51°13.664 2°55.897 1.4 216 14.7 102520 96
2005-08-30 04:54:31 51°13.668 2°55.889 1.2 218 14.6 102530 96
2005-08-30 04:54:37 51°13.672 2°55.881 1.5 218 14.6 102530 96
2005-08-30 04:54:41 51°13.675 2°55.874 1.7 219 14.7 102530 96
2005-08-30 04:54:46 51°13.679 2°55.866 1.5 214 14.7 102530 96
2005-08-30 04:54:51 51°13.683 2°55.858 1.8 213 14.7 102520 96
2005-08-30 04:54:57 51°13.688 2°55.849 1.9 213 14.7 102520 96
2005-08-30 04:55:02 51°13.692 2°55.841 2.1 209 14.7 102530 96
2005-08-30 04:55:06 51°13.695 2°55.834 1.8 209 14.7 102530 96
2005-08-30 04:55:11 51°13.7 2°55.825 2 208 14.7 102530 96
2005-08-30 04:55:17 51°13.706 2°55.815 2.3 208 14.7 102530 96
2005-08-30 04:55:22 51°13.71 2°55.808 2.1 210 14.7 102530 96
2005-08-30 04:55:26 51°13.713 2°55.8 2.1 210 14.7 102530 96
2005-08-30 04:55:31 51°13.718 2°55.792 2.4 209 14.7 102530 96
2005-08-30 04:55:36 51°13.723 2°55.784 2.6 208 14.7 102530 96
2005-08-30 04:55:41 51°13.728 2°55.775 2.4 203 14.7 102530 96
2005-08-30 04:55:47 51°13.734 2°55.766 2.3 204 14.7 102530 96
2005-08-30 04:55:52 51°13.739 2°55.757 2.2 209 14.7 102530 96
2005-08-30 04:55:57 51°13.744 2°55.749 2.4 208 14.7 102530 96
2005-08-30 04:56:02 51°13.75 2°55.741 2.5 203 14.7 102530 96
2005-08-30 04:56:06 51°13.755 2°55.734 2.3 210 14.7 102530 96
2005-08-30 04:56:11 51°13.76 2°55.725 2.3 210 14.7 102530 96
2005-08-30 04:56:17 51°13.767 2°55.716 2.3 207 14.7 102530 96
2005-08-30 04:56:22 51°13.772 2°55.708 2.2 201 14.7 102530 96
2005-08-30 04:56:26 51°13.778 2°55.701 2.2 201 14.7 102530 96
2005-08-30 04:56:31 51°13.784 2°55.693 2 184 14.7 102530 95
2005-08-30 04:56:37 51°13.791 2°55.685 2.5 190 14.7 102530 95
2005-08-30 04:56:42 51°13.797 2°55.679 2.1 194 14.7 102530 95
2005-08-30 04:56:46 51°13.803 2°55.673 2.7 212 14.7 102530 95
2005-08-30 04:56:51 51°13.809 2°55.667 2.7 210 14.8 102530 96
2005-08-30 04:56:56 51°13.815 2°55.662 1.8 187 14.8 102530 96
2005-08-30 04:57:02 51°13.823 2°55.656 1.9 183 14.8 102530 96
2005-08-30 04:57:07 51°13.83 2°55.652 1.9 171 14.8 102530 96
2005-08-30 04:57:11 51°13.836 2°55.649 1.3 179 14.8 102530 96
2005-08-30 04:57:16 51°13.842 2°55.645 1.8 208 14.8 102530 96
2005-08-30 04:57:22 51°13.85 2°55.642 2.1 198 14.9 102530 96
2005-08-30 04:57:26 51°13.856 2°55.64 2.3 195 14.9 102530 96
2005-08-30 04:57:31 51°13.863 2°55.638 1.7 190 14.9 102530 96
2005-08-30 04:57:36 51°13.87 2°55.636 2.2 189 14.9 102530 96
2005-08-30 04:57:42 51°13.878 2°55.636 3.2 206 15 102530 96
2005-08-30 04:57:47 51°13.885 2°55.636 2.6 203 15 102530 96
2005-08-30 04:57:51 51°13.89 2°55.636 2.5 201 15 102540 96
2005-08-30 04:57:56 51°13.896 2°55.636 2.2 201 15 102540 96
2005-08-30 04:58:02 51°13.902 2°55.637 2.1 206 15 102530 96
2005-08-30 04:58:06 51°13.907 2°55.638 2.5 197 15 102530 96
2005-08-30 04:58:11 51°13.912 2°55.639 1.9 197 15 102530 96
2005-08-30 04:58:16 51°13.916 2°55.64 1.5 195 15 102530 96
2005-08-30 04:58:21 51°13.921 2°55.642 2.3 201 15 102530 95
2005-08-30 04:58:26 51°13.926 2°55.643 2 205 15 102530 95
2005-08-30 04:58:30 51°13.929 2°55.645 1.5 198 15 102530 95
2005-08-30 04:58:36 51°13.932 2°55.646 1.8 199 15 102530 95
2005-08-30 04:58:41 51°13.934 2°55.647 1.5 208 15 102530 95
2005-08-30 04:58:46 51°13.936 2°55.647 1.2 207 15 102530 95
2005-08-30 04:58:50 51°13.936 2°55.646 1.1 207 15 102530 94
2005-08-30 04:58:56 51°13.936 2°55.645 0.8 203 15 102530 94
2005-08-30 04:59:01 51°13.936 2°55.643 0.8 196 15 102540 94
2005-08-30 04:59:06 51°13.935 2°55.64 0.6 196 15 102540 94
2005-08-30 04:59:10 51°13.935 2°55.636 0.7 64 15 102530 94
2005-08-30 04:59:16 51°13.933 2°55.628 0.5 21 15 102530 94
2005-08-30 04:59:20 51°13.933 2°55.623 1.1 14 15 102530 94
2005-08-30 04:59:26 51°13.934 2°55.612 1.1 12 15 102530 94
2005-08-30 04:59:30 51°13.935 2°55.605 1.6 30 14.9 102530 94
2005-08-30 04:59:36 51°13.937 2°55.593 1.9 28 14.9 102530 94
2005-08-30 04:59:41 51°13.94 2°55.585 2.4 23 14.9 102530 94
2005-08-30 04:59:46 51°13.945 2°55.576 2.5 24 14.9 102530 94
2005-08-30 04:59:50 51°13.95 2°55.569 2.6 22 15 102530 94
2005-08-30 04:59:56 51°13.956 2°55.56 2.9 25 15 102530 94
2005-08-30 05:00:01 51°13.963 2°55.551 3.3 23 14.9 102530 94
2005-08-30 05:00:06 51°13.971 2°55.542 3.3 26 14.9 102530 94
2005-08-30 05:00:10 51°13.978 2°55.534 3.4 26 15 102530 94
2005-08-30 05:00:16 51°13.989 2°55.524 3.6 24 15 102530 94
2005-08-30 05:00:20 51°13.996 2°55.516 4.1 23 14.9 102530 94
2005-08-30 05:00:26 51°14.008 2°55.505 4 17 14.9 102530 94
2005-08-30 05:00:30 51°14.016 2°55.498 4.4 16 14.9 102530 94
2005-08-30 05:00:36 51°14.03 2°55.488 4.3 18 14.9 102530 94
2005-08-30 05:00:41 51°14.04 2°55.481 4.1 13 14.9 102530 94
2005-08-30 05:00:46 51°14.052 2°55.472 4.5 15 14.9 102530 94
2005-08-30 05:00:50 51°14.062 2°55.464 4.4 17 14.9 102530 94
2005-08-30 05:00:56 51°14.076 2°55.454 4.8 16 14.9 102530 94
2005-08-30 05:01:00 51°14.086 2°55.447 4.6 20 14.9 102530 93
2005-08-30 05:01:06 51°14.101 2°55.437 4.7 22 14.9 102530 93
2005-08-30 05:01:11 51°14.114 2°55.429 4.6 21 14.9 102530 93
2005-08-30 05:01:16 51°14.127 2°55.419 4.4 21 14.9 102530 93
2005-08-30 05:01:20 51°14.137 2°55.411 4.6 19 14.8 102530 93
2005-08-30 05:01:26 51°14.152 2°55.399 4.6 18 14.8 102530 93
2005-08-30 05:01:31 51°14.166 2°55.386 4.6 20 14.8 102530 93
2005-08-30 05:01:36 51°14.179 2°55.372 4.8 15 14.8 102530 93
2005-08-30 05:01:41 51°14.19 2°55.36 4.7 21 14.8 102520 93
2005-08-30 05:01:46 51°14.203 2°55.343 4.4 19 14.8 102520 93
2005-08-30 05:01:51 51°14.214 2°55.328 4.4 21 14.7 102530 92
2005-08-30 05:01:56 51°14.226 2°55.309 4.3 18 14.7 102530 92
2005-08-30 05:02:00 51°14.234 2°55.294 4.4 14 14.7 102520 92
2005-08-30 05:02:06 51°14.247 2°55.272 4.4 15 14.7 102520 92
2005-08-30 05:02:11 51°14.256 2°55.255 4.5 13 14.7 102530 92
2005-08-30 05:02:16 51°14.268 2°55.235 4.7 19 14.7 102530 92
2005-08-30 05:02:21 51°14.279 2°55.217 4.5 17 14.7 102530 92
2005-08-30 05:02:26 51°14.29 2°55.198 4.5 23 14.7 102530 92
2005-08-30 05:02:31 51°14.3 2°55.181 4.7 17 14.6 102520 92
2005-08-30 05:02:36 51°14.311 2°55.163 4.4 27 14.6 102520 92
2005-08-30 05:02:40 51°14.322 2°55.146 4.1 21 14.6 102530 92
2005-08-30 05:02:46 51°14.335 2°55.123 4.1 28 14.6 102530 92
2005-08-30 05:02:50 51°14.344 2°55.107 4.1 19 14.5 102520 92
2005-08-30 05:02:56 51°14.357 2°55.083 4.2 16 14.5 102520 92
2005-08-30 05:03:00 51°14.365 2°55.065 4.4 13 14.5 102520 92
2005-08-30 05:03:06 51°14.376 2°55.037 4.6 11 14.5 102520 92
2005-08-30 05:03:10 51°14.382 2°55.017 4.6 13 14.5 102520 92
2005-08-30 05:03:16 51°14.391 2°54.987 5 10 14.5 102520 92
2005-08-30 05:03:20 51°14.397 2°54.966 4.9 8 14.5 102530 92
2005-08-30 05:03:26 51°14.405 2°54.934 4.5 9 14.5 102530 92
2005-08-30 05:03:30 51°14.411 2°54.912 5.1 8 14.5 102520 93
2005-08-30 05:03:36 51°14.419 2°54.878 5.1 5 14.5 102520 93
2005-08-30 05:03:41 51°14.425 2°54.853 4.9 9 14.5 102520 93
2005-08-30 05:03:46 51°14.432 2°54.822 5.1 10 14.5 102520 93
2005-08-30 05:03:50 51°14.437 2°54.8 5.2 9 14.5 102530 93
2005-08-30 05:03:56 51°14.445 2°54.766 5.1 8 14.5 102530 93
2005-08-30 05:04:01 51°14.451 2°54.74 5.4 5 14.5 102520 93
2005-08-30 05:04:06 51°14.458 2°54.708 5.3 6 14.5 102520 93
2005-08-30 05:04:10 51°14.464 2°54.685 4.9 10 14.5 102520 93
2005-08-30 05:04:16 51°14.471 2°54.653 5.3 7 14.5 102520 93
2005-08-30 05:04:21 51°14.478 2°54.625 5 9 14.5 102530 93
2005-08-30 05:04:26 51°14.484 2°54.596 5.1 11 14.5 102530 93
2005-08-30 05:04:30 51°14.491 2°54.57 5.1 11 14.5 102520 93
2005-08-30 05:04:35 51°14.498 2°54.542 5.2 13 14.5 102520 93
2005-08-30 05:04:41 51°14.507 2°54.508 5.1 9 14.6 102530 93
2005-08-30 05:04:46 51°14.514 2°54.482 5.2 11 14.6 102530 93
2005-08-30 05:04:50 51°14.52 2°54.457 5.2 11 14.6 102530 94
2005-08-30 05:04:55 51°14.528 2°54.429 5.2 13 14.6 102530 94
2005-08-30 05:05:00 51°14.536 2°54.401 5.3 13 14.6 102520 94
2005-08-30 05:05:06 51°14.544 2°54.367 5.2 11 14.6 102520 94
2005-08-30 05:05:11 51°14.551 2°54.341 5.2 10 14.6 102520 94
2005-08-30 05:05:16 51°14.559 2°54.31 5 10 14.6 102520 94
2005-08-30 05:05:21 51°14.566 2°54.284 5.1 11 14.7 102520 94
2005-08-30 05:05:26 51°14.573 2°54.255 5.1 11 14.7 102520 94
2005-08-30 05:05:31 51°14.58 2°54.227 5.3 10 14.7 102530 94
2005-08-30 05:05:36 51°14.588 2°54.195 5.3 12 14.7 102530 94
2005-08-30 05:05:41 51°14.594 2°54.169 5.4 13 14.7 102530 94
2005-08-30 05:05:46 51°14.602 2°54.138 5.2 11 14.7 102530 94
2005-08-30 05:05:50 51°14.608 2°54.115 5.3 12 14.8 102530 94
2005-08-30 05:05:56 51°14.618 2°54.081 5.6 14 14.8 102530 94
2005-08-30 05:06:01 51°14.625 2°54.053 5.1 15 14.8 102530 94
2005-08-30 05:06:06 51°14.633 2°54.025 5.4 12 14.8 102530 94
2005-08-30 05:06:11 51°14.64 2°54 5.3 15 14.8 102530 94
2005-08-30 05:06:16 51°14.648 2°53.969 5.3 12 14.8 102530 94
2005-08-30 05:06:21 51°14.654 2°53.943 5.2 13 14.9 102530 94
2005-08-30 05:06:26 51°14.663 2°53.912 5.1 14 14.9 102530 94
2005-08-30 05:06:30 51°14.668 2°53.889 5 12 14.9 102530 95
2005-08-30 05:06:36 51°14.676 2°53.854 5.4 12 14.9 102530 95
2005-08-30 05:06:41 51°14.682 2°53.828 5 12 15 102530 95
2005-08-30 05:06:46 51°14.688 2°53.799 5.1 14 15 102530 95
2005-08-30 05:06:50 51°14.693 2°53.773 5 15 15 102530 95
2005-08-30 05:06:55 51°14.699 2°53.744 5.3 12 15 102530 95
2005-08-30 05:07:01 51°14.706 2°53.709 4.9 11 15 102530 95
2005-08-30 05:07:06 51°14.711 2°53.683 5 16 15 102530 95
2005-08-30 05:07:11 51°14.715 2°53.653 5 10 15.1 102530 95
2005-08-30 05:07:15 51°14.718 2°53.627 4.9 12 15.1 102530 95
2005-08-30 05:07:21 51°14.72 2°53.593 4.8 7 15.1 102530 95
2005-08-30 05:07:26 51°14.722 2°53.56 5 10 15.1 102530 95
2005-08-30 05:07:30 51°14.723 2°53.536 5 7 15.2 102530 95
2005-08-30 05:07:36 51°14.723 2°53.499 5 8 15.2 102530 95
2005-08-30 05:07:40 51°14.724 2°53.474 4.9 7 15.2 102530 95
2005-08-30 05:07:46 51°14.725 2°53.437 5 5 15.2 102530 95
2005-08-30 05:07:51 51°14.725 2°53.406 5.2 8 15.2 102530 95
2005-08-30 05:07:56 51°14.725 2°53.376 5.3 6 15.2 102530 95
2005-08-30 05:08:01 51°14.726 2°53.348 4.9 7 15.3 102530 95
2005-08-30 05:08:06 51°14.727 2°53.314 5 9 15.3 102530 95
2005-08-30 05:08:10 51°14.727 2°53.289 4.8 6 15.3 102530 95
2005-08-30 05:08:16 51°14.728 2°53.253 5 6 15.3 102530 95
2005-08-30 05:08:21 51°14.729 2°53.222 5.1 11 15.4 102530 95
2005-08-30 05:08:26 51°14.73 2°53.191 5.1 8 15.4 102530 95
2005-08-30 05:08:30 51°14.731 2°53.167 4.9 11 15.4 102530 95
2005-08-30 05:08:36 51°14.732 2°53.13 4.9 10 15.4 102530 95
2005-08-30 05:08:41 51°14.734 2°53.102 4.7 10 15.4 102530 95
2005-08-30 05:08:46 51°14.735 2°53.069 4.8 11 15.4 102530 95
2005-08-30 05:08:50 51°14.736 2°53.045 5 15 15.4 102530 95
2005-08-30 05:08:55 51°14.737 2°53.013 5.1 14 15.4 102530 95
2005-08-30 05:09:01 51°14.739 2°52.976 5.1 13 15.5 102530 95
2005-08-30 05:09:06 51°14.74 2°52.945 5.2 13 15.5 102530 95
2005-08-30 05:09:11 51°14.741 2°52.916 5.1 12 15.5 102530 95
2005-08-30 05:09:16 51°14.741 2°52.885 5.1 13 15.5 102530 95
2005-08-30 05:09:21 51°14.742 2°52.851 5 12 15.5 102530 95
2005-08-30 05:09:26 51°14.742 2°52.823 5.3 13 15.5 102530 95
2005-08-30 05:09:31 51°14.742 2°52.791 5.1 14 15.5 102530 95
2005-08-30 05:09:36 51°14.743 2°52.757 5 13 15.5 102530 95
2005-08-30 05:09:41 51°14.744 2°52.725 5 15 15.5 102530 95
2005-08-30 05:09:46 51°14.745 2°52.694 4.8 17 15.5 102530 95
2005-08-30 05:09:50 51°14.746 2°52.669 4.7 14 15.6 102530 95
2005-08-30 05:09:56 51°14.747 2°52.634 4.5 18 15.6 102530 95
2005-08-30 05:10:00 51°14.748 2°52.606 5 16 15.6 102530 95
2005-08-30 05:10:06 51°14.749 2°52.571 4.9 16 15.6 102530 95
2005-08-30 05:10:11 51°14.751 2°52.537 4.7 16 15.6 102530 95
2005-08-30 05:10:14 51°14.751 2°52.518 4.7 18 15.6 102530 95
2005-08-30 05:10:21 51°14.753 2°52.478 4.8 15 15.6 102530 95
2005-08-30 05:10:26 51°14.753 2°52.446 4.9 13 15.6 102530 95
2005-08-30 05:10:30 51°14.754 2°52.418 4.5 16 15.7 102530 95
2005-08-30 05:10:36 51°14.754 2°52.383 4.7 13 15.7 102530 95
2005-08-30 05:10:41 51°14.755 2°52.352 4.6 16 15.7 102530 95
2005-08-30 05:10:46 51°14.756 2°52.317 4.5 15 15.7 102530 95
2005-08-30 05:10:50 51°14.757 2°52.292 4.8 14 15.7 102530 95
2005-08-30 05:10:56 51°14.758 2°52.254 4.4 13 15.7 102530 95
2005-08-30 05:11:01 51°14.759 2°52.226 4.5 14 15.8 102530 95
2005-08-30 05:11:06 51°14.76 2°52.194 4.8 15 15.8 102530 95
2005-08-30 05:11:10 51°14.761 2°52.166 4.6 12 15.8 102530 95
2005-08-30 05:11:16 51°14.763 2°52.131 4.6 16 15.8 102530 95
2005-08-30 05:11:21 51°14.764 2°52.097 4.6 14 15.8 102530 95
2005-08-30 05:11:26 51°14.765 2°52.065 4.6 15 15.8 102530 95
2005-08-30 05:11:30 51°14.766 2°52.04 4.7 14 15.8 102530 95
2005-08-30 05:11:36 51°14.766 2°52.002 4.9 12 15.8 102530 95
2005-08-30 05:11:41 51°14.767 2°51.97 4.9 10 15.8 102530 95
2005-08-30 05:11:46 51°14.767 2°51.938 4.7 12 15.8 102530 95
2005-08-30 05:11:50 51°14.768 2°51.912 4.8 10 15.9 102530 95
2005-08-30 05:11:56 51°14.769 2°51.877 4.9 12 15.9 102530 95
2005-08-30 05:12:01 51°14.77 2°51.845 4.4 10 15.9 102530 95
2005-08-30 05:12:06 51°14.771 2°51.81 4.5 14 15.9 102530 95
2005-08-30 05:12:10 51°14.772 2°51.785 4.6 12 15.9 102530 95
2005-08-30 05:12:16 51°14.773 2°51.749 4.8 12 15.9 102530 95
2005-08-30 05:12:20 51°14.774 2°51.721 4.6 11 15.9 102530 95
2005-08-30 05:12:26 51°14.776 2°51.686 4.8 12 15.9 102530 95
2005-08-30 05:12:30 51°14.777 2°51.657 4.9 13 15.9 102530 95
2005-08-30 05:12:36 51°14.778 2°51.618 4.6 12 15.9 102530 95
2005-08-30 05:12:40 51°14.78 2°51.593 4.7 12 16 102530 95
2005-08-30 05:12:46 51°14.781 2°51.558 4.6 13 16 102530 95
2005-08-30 05:12:51 51°14.782 2°51.523 4.9 12 16 102530 95
2005-08-30 05:12:56 51°14.783 2°51.494 5 10 16 102530 95
2005-08-30 05:13:01 51°14.783 2°51.462 4.8 13 16 102530 95
2005-08-30 05:13:06 51°14.784 2°51.426 4.9 12 16 102530 95
2005-08-30 05:13:11 51°14.785 2°51.397 4.7 11 16 102530 95
2005-08-30 05:13:16 51°14.786 2°51.362 5 12 16 102530 95
2005-08-30 05:13:21 51°14.787 2°51.333 5.1 11 16 102530 95
2005-08-30 05:13:26 51°14.788 2°51.298 5.1 13 16 102530 95
2005-08-30 05:13:30 51°14.789 2°51.272 5.2 11 16 102530 95
2005-08-30 05:13:36 51°14.79 2°51.237 5.2 10 16 102530 95
2005-08-30 05:13:41 51°14.792 2°51.202 4.9 10 16.1 102530 95
2005-08-30 05:13:46 51°14.793 2°51.17 5 10 16.1 102530 95
2005-08-30 05:13:50 51°14.794 2°51.144 5.1 10 16.1 102530 95
2005-08-30 05:13:54 51°14.794 2°51.118 5.1 12 16.1 102530 95
2005-08-30 05:14:01 51°14.796 2°51.073 5.5 12 16.1 102530 95
2005-08-30 05:14:06 51°14.797 2°51.041 5.2 12 16.1 102530 95
2005-08-30 05:14:11 51°14.798 2°51.012 5.1 11 16.1 102530 95
2005-08-30 05:14:16 51°14.798 2°50.975 5.2 13 16.1 102530 95
2005-08-30 05:14:20 51°14.799 2°50.949 5.4 10 16.1 102530 95
2005-08-30 05:14:26 51°14.799 2°50.91 5.2 11 16.1 102530 95
2005-08-30 05:14:31 51°14.8 2°50.881 5.5 10 16.1 102530 95
2005-08-30 05:14:36 51°14.802 2°50.846 5.2 12 16.1 102530 95
2005-08-30 05:14:41 51°14.803 2°50.813 5.4 9 16.1 102530 95
2005-08-30 05:14:46 51°14.804 2°50.781 5.3 11 16.1 102530 95
2005-08-30 05:14:51 51°14.805 2°50.749 5.4 12 16.2 102530 94
2005-08-30 05:14:56 51°14.807 2°50.717 5.1 11 16.2 102530 94
2005-08-30 05:15:01 51°14.808 2°50.688 5.5 11 16.2 102530 94
2005-08-30 05:15:06 51°14.809 2°50.652 5.4 12 16.2 102530 94
2005-08-30 05:15:10 51°14.81 2°50.627 5.5 9 16.2 102520 94
2005-08-30 05:15:16 51°14.811 2°50.588 5.3 9 16.2 102520 94
2005-08-30 05:15:21 51°14.811 2°50.558 5.2 10 16.2 102530 94
2005-08-30 05:15:26 51°14.813 2°50.526 5.2 8 16.2 102530 94
2005-08-30 05:15:31 51°14.814 2°50.493 5.2 9 16.2 102530 94
2005-08-30 05:15:36 51°14.815 2°50.458 5.2 8 16.2 102530 94
2005-08-30 05:15:41 51°14.816 2°50.428 5 9 16.2 102530 94
2005-08-30 05:15:46 51°14.817 2°50.395 5 10 16.2 102530 94
2005-08-30 05:15:50 51°14.818 2°50.366 5.1 10 16.2 102530 94
2005-08-30 05:15:55 51°14.819 2°50.335 5.1 6 16.2 102530 94
2005-08-30 05:16:01 51°14.82 2°50.296 5.2 6 16.2 102530 94
2005-08-30 05:16:06 51°14.822 2°50.264 5.1 7 16.2 102530 94
2005-08-30 05:16:11 51°14.822 2°50.235 5.3 6 16.2 102530 94
2005-08-30 05:16:16 51°14.823 2°50.202 4.9 5 16.2 102530 94
2005-08-30 05:16:22 51°14.823 2°50.163 5.1 5 16.2 102530 94
2005-08-30 05:16:26 51°14.824 2°50.134 5.1 4 16.2 102530 94
2005-08-30 05:16:31 51°14.825 2°50.105 4.8 3 16.3 102520 94
2005-08-30 05:16:35 51°14.825 2°50.076 4.9 5 16.3 102520 94
2005-08-30 05:16:41 51°14.826 2°50.04 4.9 6 16.3 102530 94
2005-08-30 05:16:46 51°14.827 2°50.004 5.2 3 16.3 102530 94
2005-08-30 05:16:51 51°14.828 2°49.975 5.2 5 16.3 102520 94
2005-08-30 05:16:56 51°14.829 2°49.942 5.2 2 16.3 102520 94
2005-08-30 05:17:01 51°14.829 2°49.909 5.3 359 16.3 102520 94
2005-08-30 05:17:06 51°14.83 2°49.876 5.2 3 16.3 102520 94
2005-08-30 05:17:11 51°14.831 2°49.844 5.1 2 16.3 102520 94
2005-08-30 05:17:16 51°14.832 2°49.811 5.3 2 16.3 102520 94
2005-08-30 05:17:21 51°14.833 2°49.779 4.9 2 16.3 102520 94
2005-08-30 05:17:26 51°14.834 2°49.743 4.9 2 16.3 102520 94
2005-08-30 05:17:30 51°14.834 2°49.717 4.6 5 16.4 102530 94
2005-08-30 05:17:36 51°14.835 2°49.681 4.9 1 16.4 102530 94
2005-08-30 05:17:41 51°14.837 2°49.646 5 1 16.4 102530 94
2005-08-30 05:17:46 51°14.838 2°49.613 4.8 3 16.4 102530 94
2005-08-30 05:17:51 51°14.839 2°49.584 5 4 16.4 102530 94
2005-08-30 05:17:56 51°14.839 2°49.551 4.8 3 16.4 102530 94
2005-08-30 05:18:01 51°14.84 2°49.519 5 3 16.4 102520 94
2005-08-30 05:18:06 51°14.841 2°49.484 5 1 16.4 102520 94
2005-08-30 05:18:11 51°14.842 2°49.454 4.8 2 16.4 102530 94
2005-08-30 05:18:16 51°14.843 2°49.422 4.9 2 16.4 102530 94
2005-08-30 05:18:21 51°14.845 2°49.386 5.3 3 16.4 102530 94
2005-08-30 05:18:27 51°14.846 2°49.35 5.2 4 16.4 102530 94
2005-08-30 05:18:31 51°14.847 2°49.324 5 5 16.4 102520 94
2005-08-30 05:18:36 51°14.847 2°49.29 5.1 2 16.4 102520 94
2005-08-30 05:18:41 51°14.849 2°49.259 5.2 7 16.4 102520 94
2005-08-30 05:18:45 51°14.85 2°49.229 5.2 4 16.4 102520 94
2005-08-30 05:18:51 51°14.851 2°49.194 4.9 3 16.4 102520 94
2005-08-30 05:18:56 51°14.851 2°49.161 5 4 16.4 102520 94
2005-08-30 05:19:01 51°14.853 2°49.129 4.9 2 16.5 102530 94
2005-08-30 05:19:06 51°14.854 2°49.097 4.9 8 16.5 102530 94
2005-08-30 05:19:11 51°14.855 2°49.064 5.3 4 16.5 102530 94
2005-08-30 05:19:16 51°14.856 2°49.032 5 6 16.5 102530 94
2005-08-30 05:19:21 51°14.857 2°49 4.7 2 16.5 102520 94
2005-08-30 05:19:26 51°14.858 2°48.968 4.8 6 16.5 102520 94
2005-08-30 05:19:31 51°14.859 2°48.935 5.1 7 16.5 102530 94
2005-08-30 05:19:35 51°14.86 2°48.906 4.7 9 16.5 102530 94
2005-08-30 05:19:40 51°14.861 2°48.877 5.2 3 16.5 102530 93
2005-08-30 05:19:46 51°14.862 2°48.835 5 4 16.5 102530 93
2005-08-30 05:19:51 51°14.864 2°48.806 5.1 8 16.5 102520 93
2005-08-30 05:19:56 51°14.865 2°48.774 5.1 9 16.5 102520 93
2005-08-30 05:20:01 51°14.866 2°48.742 5.3 7 16.5 102530 93
2005-08-30 05:20:05 51°14.867 2°48.713 5 6 16.5 102530 93
2005-08-30 05:20:10 51°14.868 2°48.681 5.2 9 16.6 102530 93
2005-08-30 05:20:16 51°14.869 2°48.645 5.4 9 16.6 102530 93
2005-08-30 05:20:21 51°14.87 2°48.613 5.3 9 16.6 102530 93
2005-08-30 05:20:26 51°14.871 2°48.578 5.3 11 16.6 102530 93
2005-08-30 05:20:31 51°14.872 2°48.549 5.1 8 16.6 102530 93
2005-08-30 05:20:35 51°14.873 2°48.52 5.1 11 16.6 102530 93
2005-08-30 05:20:40 51°14.874 2°48.491 5 8 16.6 102520 93
2005-08-30 05:20:46 51°14.876 2°48.452 5.1 11 16.6 102520 93
2005-08-30 05:20:51 51°14.877 2°48.42 5.4 10 16.7 102530 93
2005-08-30 05:20:56 51°14.878 2°48.387 5.4 11 16.7 102530 93
2005-08-30 05:21:01 51°14.879 2°48.355 5.3 8 16.6 102530 93
2005-08-30 05:21:06 51°14.88 2°48.323 5.3 10 16.6 102530 93
2005-08-30 05:21:11 51°14.881 2°48.291 5.3 8 16.6 102530 93
2005-08-30 05:21:16 51°14.882 2°48.259 5 7 16.6 102530 93
2005-08-30 05:21:21 51°14.883 2°48.227 5.1 7 16.6 102520 93
2005-08-30 05:21:26 51°14.884 2°48.194 5 7 16.6 102520 93
2005-08-30 05:21:31 51°14.885 2°48.162 5 10 16.6 102530 93
2005-08-30 05:21:35 51°14.886 2°48.133 4.9 8 16.6 102530 93
2005-08-30 05:21:41 51°14.887 2°48.098 4.9 9 16.7 102530 93
2005-08-30 05:21:46 51°14.888 2°48.062 5.1 9 16.7 102530 93
2005-08-30 05:21:50 51°14.889 2°48.036 5.2 6 16.7 102530 93
2005-08-30 05:21:56 51°14.89 2°48.001 5.5 8 16.7 102530 93
2005-08-30 05:22:01 51°14.891 2°47.968 4.9 6 16.6 102530 92
2005-08-30 05:22:06 51°14.892 2°47.936 4.9 7 16.6 102530 92
2005-08-30 05:22:11 51°14.893 2°47.904 4.9 7 16.6 102530 92
2005-08-30 05:22:16 51°14.894 2°47.872 4.6 8 16.6 102530 92
2005-08-30 05:22:21 51°14.895 2°47.84 4.6 5 16.7 102530 92
2005-08-30 05:22:26 51°14.896 2°47.808 4.8 7 16.7 102530 92
2005-08-30 05:22:31 51°14.897 2°47.775 4.9 1 16.6 102530 92
2005-08-30 05:22:37 51°14.898 2°47.736 4.6 7 16.6 102530 92
2005-08-30 05:22:41 51°14.899 2°47.711 4.5 4 16.7 102530 92
2005-08-30 05:22:46 51°14.9 2°47.676 4.6 8 16.7 102530 92
2005-08-30 05:22:51 51°14.902 2°47.647 4.6 6 16.7 102530 92
2005-08-30 05:22:56 51°14.903 2°47.614 4.5 6 16.7 102530 92
2005-08-30 05:23:01 51°14.904 2°47.582 4.3 6 16.7 102530 92
2005-08-30 05:23:06 51°14.905 2°47.547 4.2 8 16.7 102530 92
2005-08-30 05:23:11 51°14.907 2°47.518 4.2 7 16.7 102530 92
2005-08-30 05:23:15 51°14.907 2°47.492 4.6 7 16.7 102530 92
2005-08-30 05:23:19 51°14.908 2°47.463 4.6 8 16.7 102530 92
2005-08-30 05:23:26 51°14.91 2°47.421 4.7 8 16.7 102530 92
2005-08-30 05:23:31 51°14.911 2°47.39 4.6 7 16.7 102530 92
2005-08-30 05:23:36 51°14.912 2°47.357 4.6 4 16.7 102530 92
2005-08-30 05:23:39 51°14.913 2°47.338 4.6 3 16.7 102530 92
2005-08-30 05:23:46 51°14.915 2°47.29 4.2 7 16.7 102530 92
2005-08-30 05:23:51 51°14.916 2°47.262 4.3 4 16.7 102530 92
2005-08-30 05:23:56 51°14.917 2°47.23 4.2 9 16.7 102530 92
2005-08-30 05:24:01 51°14.918 2°47.198 4.4 8 16.7 102530 92
2005-08-30 05:24:06 51°14.92 2°47.166 4.1 6 16.7 102530 92
2005-08-30 05:24:11 51°14.92 2°47.134 4.3 9 16.7 102530 92
2005-08-30 05:24:16 51°14.921 2°47.102 4.4 8 16.7 102530 92
2005-08-30 05:24:21 51°14.923 2°47.071 4.3 10 16.7 102530 91
2005-08-30 05:24:26 51°14.924 2°47.039 4.1 9 16.7 102530 91
2005-08-30 05:24:31 51°14.925 2°47.007 3.9 11 16.8 102530 91
2005-08-30 05:24:36 51°14.926 2°46.976 4.1 7 16.8 102530 91
2005-08-30 05:24:41 51°14.927 2°46.944 4 9 16.8 102530 91
2005-08-30 05:24:46 51°14.929 2°46.913 4.4 9 16.8 102530 91
2005-08-30 05:24:51 51°14.93 2°46.881 4.4 9 16.8 102540 91
2005-08-30 05:24:56 51°14.931 2°46.85 4.4 8 16.8 102540 91
2005-08-30 05:25:01 51°14.932 2°46.818 4.6 8 16.8 102540 91
2005-08-30 05:25:06 51°14.934 2°46.787 4.5 11 16.8 102540 91
2005-08-30 05:25:11 51°14.935 2°46.755 4.4 8 16.8 102540 91
2005-08-30 05:25:16 51°14.936 2°46.724 4.3 12 16.8 102540 91
2005-08-30 05:25:21 51°14.937 2°46.689 2.6 11 16.8 102540 91
2005-08-30 05:25:26 51°14.938 2°46.66 4.6 10 16.8 102540 91
2005-08-30 05:25:31 51°14.939 2°46.629 4.4 7 16.8 102540 91
2005-08-30 05:25:36 51°14.94 2°46.597 4.6 11 16.8 102540 91
2005-08-30 05:25:41 51°14.941 2°46.566 4.2 13 16.9 102540 91
2005-08-30 05:25:46 51°14.942 2°46.531 4.4 14 16.9 102540 91
2005-08-30 05:25:51 51°14.943 2°46.502 4.7 12 16.9 102530 91
2005-08-30 05:25:56 51°14.944 2°46.47 4.3 10 16.9 102530 91
2005-08-30 05:26:01 51°14.946 2°46.439 4.5 12 16.9 102540 91
2005-08-30 05:26:06 51°14.947 2°46.407 4.8 10 16.9 102540 91
2005-08-30 05:26:11 51°14.949 2°46.375 4.5 9 16.9 102530 91
2005-08-30 05:26:16 51°14.95 2°46.343 4.7 12 16.9 102530 91
2005-08-30 05:26:21 51°14.952 2°46.311 4.6 7 16.9 102530 91
2005-08-30 05:26:26 51°14.953 2°46.28 4.5 10 16.9 102530 91
2005-08-30 05:26:31 51°14.955 2°46.247 4.4 6 17 102540 91
2005-08-30 05:26:36 51°14.956 2°46.215 4.5 12 17 102540 91
2005-08-30 05:26:41 51°14.957 2°46.183 4.8 7 17 102540 91
2005-08-30 05:26:46 51°14.958 2°46.151 5.2 7 17 102540 91
2005-08-30 05:26:50 51°14.959 2°46.122 4.6 6 16.9 102540 91
2005-08-30 05:26:56 51°14.961 2°46.087 4.5 6 16.9 102540 91
2005-08-30 05:27:01 51°14.963 2°46.055 4.6 4 17 102540 91
2005-08-30 05:27:06 51°14.964 2°46.02 4.2 5 17 102540 91
2005-08-30 05:27:10 51°14.965 2°45.994 4.6 7 17 102540 91
2005-08-30 05:27:16 51°14.967 2°45.958 4.7 7 17 102540 91
2005-08-30 05:27:21 51°14.968 2°45.927 4.6 5 17 102540 91
2005-08-30 05:27:26 51°14.969 2°45.894 4.7 5 17 102540 91
2005-08-30 05:27:31 51°14.97 2°45.862 4.8 3 17 102540 90
2005-08-30 05:27:36 51°14.971 2°45.83 5 2 17 102540 90
2005-08-30 05:27:41 51°14.973 2°45.798 4.8 5 17 102540 91
2005-08-30 05:27:46 51°14.974 2°45.763 4.9 3 17 102540 91
2005-08-30 05:27:51 51°14.975 2°45.734 4.5 4 17 102540 90
2005-08-30 05:27:56 51°14.976 2°45.702 4.7 5 17 102540 90
2005-08-30 05:28:00 51°14.977 2°45.672 4.9 1 17 102540 91
2005-08-30 05:28:05 51°14.978 2°45.641 4.7 2 17 102540 91
2005-08-30 05:28:11 51°14.979 2°45.605 4.6 10 17 102540 90
2005-08-30 05:28:16 51°14.98 2°45.573 4.5 7 17 102540 90
2005-08-30 05:28:20 51°14.982 2°45.544 4.3 6 17 102530 90
2005-08-30 05:28:26 51°14.983 2°45.509 4.5 5 17 102530 90
2005-08-30 05:28:31 51°14.984 2°45.476 4.4 5 17.1 102540 90
2005-08-30 05:28:36 51°14.985 2°45.444 4.3 4 17.1 102540 90
2005-08-30 05:28:40 51°14.986 2°45.415 4.2 3 17 102530 90
2005-08-30 05:28:46 51°14.987 2°45.38 4.5 3 17 102530 90
2005-08-30 05:28:51 51°14.988 2°45.347 4.3 1 17 102530 90
2005-08-30 05:28:56 51°14.989 2°45.315 4.4 4 17 102530 90
2005-08-30 05:29:01 51°14.99 2°45.283 4.9 6 17 102530 90
2005-08-30 05:29:06 51°14.991 2°45.251 4.6 7 17 102530 90
2005-08-30 05:29:11 51°14.993 2°45.218 4.6 4 17.1 102540 90
2005-08-30 05:29:15 51°14.994 2°45.189 4.6 6 17.1 102540 90
2005-08-30 05:29:21 51°14.995 2°45.154 4.9 -999 17 102540 90
2005-08-30 05:29:26 51°14.997 2°45.119 4.7 2 17 102540 90
2005-08-30 05:29:31 51°14.998 2°45.09 4.7 4 17.1 102530 90
2005-08-30 05:29:36 51°14.999 2°45.057 4.8 2 17.1 102530 90
2005-08-30 05:29:41 51°15 2°45.025 5 359 17.1 102540 90
2005-08-30 05:29:46 51°15.001 2°44.993 5.3 3 17.1 102540 90
2005-08-30 05:29:51 51°15.002 2°44.96 5.2 3 17.1 102540 90
2005-08-30 05:29:56 51°15.003 2°44.928 5.5 2 17.1 102540 90
2005-08-30 05:30:01 51°15.005 2°44.896 5.3 2 17.1 102530 90
2005-08-30 05:30:06 51°15.006 2°44.863 5.4 3 17.1 102530 90
2005-08-30 05:30:11 51°15.007 2°44.831 5.3 3 17.1 102530 90
2005-08-30 05:30:16 51°15.008 2°44.799 5.5 5 17.1 102530 90
2005-08-30 05:30:20 51°15.01 2°44.769 5.4 4 17.1 102530 90
2005-08-30 05:30:26 51°15.011 2°44.734 5.4 2 17.1 102530 90
2005-08-30 05:30:31 51°15.012 2°44.702 5.3 3 17.2 102540 90
2005-08-30 05:30:37 51°15.013 2°44.663 5.1 1 17.2 102540 90
2005-08-30 05:30:41 51°15.014 2°44.637 5.3 2 17.2 102530 90
2005-08-30 05:30:46 51°15.015 2°44.605 5.2 2 17.2 102530 90
2005-08-30 05:30:51 51°15.017 2°44.572 5 5 17.2 102540 90
2005-08-30 05:30:56 51°15.018 2°44.54 5.3 3 17.2 102540 90
2005-08-30 05:31:00 51°15.018 2°44.511 5.2 1 17.2 102530 90
2005-08-30 05:31:06 51°15.019 2°44.475 4.9 1 17.2 102530 90
2005-08-30 05:31:11 51°15.02 2°44.443 4.9 359 17.2 102530 90
2005-08-30 05:31:16 51°15.021 2°44.411 5 1 17.2 102530 90
2005-08-30 05:31:21 51°15.023 2°44.378 5 1 17.2 102530 90
2005-08-30 05:31:26 51°15.024 2°44.343 4.6 2 17.2 102530 90
2005-08-30 05:31:30 51°15.025 2°44.317 4.9 1 17.2 102540 90
2005-08-30 05:31:36 51°15.026 2°44.281 5.2 358 17.2 102540 90
2005-08-30 05:31:41 51°15.027 2°44.249 5.3 358 17.2 102530 90
2005-08-30 05:31:46 51°15.028 2°44.216 5.4 356 17.2 102530 90
2005-08-30 05:31:51 51°15.029 2°44.184 5 360 17.2 102530 90
2005-08-30 05:31:56 51°15.031 2°44.151 5.3 356 17.2 102530 90
2005-08-30 05:32:01 51°15.032 2°44.119 5.2 357 17.2 102530 90
2005-08-30 05:32:06 51°15.033 2°44.086 5.1 358 17.2 102530 90
2005-08-30 05:32:10 51°15.034 2°44.057 5 360 17.2 102530 90
2005-08-30 05:32:16 51°15.036 2°44.022 5 359 17.2 102530 90
2005-08-30 05:32:21 51°15.037 2°43.989 4.9 357 17.2 102530 90
2005-08-30 05:32:27 51°15.038 2°43.95 4.9 357 17.2 102530 90
2005-08-30 05:32:31 51°15.039 2°43.924 5.1 357 17.2 102540 90
2005-08-30 05:32:36 51°15.04 2°43.892 5.1 357 17.2 102540 90
2005-08-30 05:32:40 51°15.041 2°43.863 5.2 356 17.2 102530 90
2005-08-30 05:32:46 51°15.042 2°43.827 4.8 355 17.2 102530 90
2005-08-30 05:32:51 51°15.044 2°43.795 4.9 359 17.2 102530 90
2005-08-30 05:32:55 51°15.045 2°43.766 5 2 17.2 102530 90
2005-08-30 05:33:01 51°15.046 2°43.73 4.8 359 17.2 102530 89
2005-08-30 05:33:06 51°15.047 2°43.698 4.6 356 17.2 102530 89
2005-08-30 05:33:11 51°15.048 2°43.665 4.7 355 17.2 102540 89
2005-08-30 05:33:15 51°15.049 2°43.636 4.9 354 17.2 102540 89
2005-08-30 05:33:21 51°15.05 2°43.601 4.8 359 17.2 102530 89
2005-08-30 05:33:26 51°15.051 2°43.569 4.9 357 17.2 102530 89
2005-08-30 05:33:31 51°15.052 2°43.536 4.5 -999 17.2 102530 89
2005-08-30 05:33:36 51°15.053 2°43.504 4.5 359 17.2 102530 89
2005-08-30 05:33:41 51°15.054 2°43.469 4.2 1 17.2 102530 89
2005-08-30 05:33:46 51°15.055 2°43.44 4.4 356 17.2 102530 89
2005-08-30 05:33:51 51°15.056 2°43.407 4.3 354 17.2 102530 89
2005-08-30 05:33:56 51°15.057 2°43.372 5.2 357 17.2 102530 89
2005-08-30 05:34:01 51°15.059 2°43.34 5.3 357 17.2 102530 89
2005-08-30 05:34:06 51°15.06 2°43.311 5.5 360 17.2 102530 89
2005-08-30 05:34:11 51°15.061 2°43.279 5.3 2 17.2 102530 89
2005-08-30 05:34:16 51°15.063 2°43.247 4.9 360 17.2 102530 89
2005-08-30 05:34:20 51°15.063 2°43.217 5.3 1 17.2 102530 89
2005-08-30 05:34:26 51°15.065 2°43.182 5.1 355 17.2 102530 89
2005-08-30 05:34:31 51°15.066 2°43.15 5 -999 17.3 102530 89
2005-08-30 05:34:36 51°15.067 2°43.118 5.1 357 17.3 102530 89
2005-08-30 05:34:41 51°15.068 2°43.086 5 356 17.3 102530 89
2005-08-30 05:34:46 51°15.069 2°43.05 4.7 359 17.3 102530 89
2005-08-30 05:34:51 51°15.069 2°43.022 5.2 357 17.3 102530 89
2005-08-30 05:34:55 51°15.07 2°42.993 5.1 355 17.3 102530 89
2005-08-30 05:35:01 51°15.072 2°42.957 5.3 358 17.3 102530 89
2005-08-30 05:35:06 51°15.073 2°42.922 5.1 358 17.3 102530 89
2005-08-30 05:35:11 51°15.074 2°42.893 5.2 -999 17.3 102530 89
2005-08-30 05:35:16 51°15.075 2°42.861 4.9 359 17.3 102530 89
2005-08-30 05:35:20 51°15.076 2°42.832 4.7 354 17.3 102530 89
2005-08-30 05:35:26 51°15.077 2°42.797 4.4 358 17.3 102530 89
2005-08-30 05:35:31 51°15.078 2°42.765 4.7 358 17.3 102530 89
2005-08-30 05:35:36 51°15.079 2°42.732 4.8 357 17.3 102530 89
2005-08-30 05:35:41 51°15.08 2°42.7 4.6 356 17.3 102530 89
2005-08-30 05:35:46 51°15.081 2°42.669 4.6 355 17.3 102530 89
2005-08-30 05:35:51 51°15.082 2°42.636 4.7 356 17.3 102530 89
2005-08-30 05:35:57 51°15.084 2°42.598 4.6 357 17.3 102530 89
2005-08-30 05:36:01 51°15.085 2°42.572 4.1 354 17.3 102530 89
2005-08-30 05:36:06 51°15.085 2°42.54 4.2 357 17.3 102530 89
2005-08-30 05:36:11 51°15.087 2°42.509 4.5 357 17.3 102530 89
2005-08-30 05:36:16 51°15.088 2°42.477 4.6 357 17.3 102530 89
2005-08-30 05:36:21 51°15.089 2°42.445 4.9 355 17.3 102530 89
2005-08-30 05:36:26 51°15.09 2°42.413 4.7 2 17.3 102530 89
2005-08-30 05:36:31 51°15.093 2°42.381 5 358 17.3 102540 89
2005-08-30 05:36:36 51°15.095 2°42.349 4.4 358 17.3 102540 89
2005-08-30 05:36:41 51°15.098 2°42.317 4.5 357 17.3 102530 89
2005-08-30 05:36:46 51°15.101 2°42.286 4.4 355 17.3 102530 89
2005-08-30 05:36:51 51°15.104 2°42.255 4.9 355 17.3 102530 89
2005-08-30 05:36:56 51°15.107 2°42.223 4.7 1 17.3 102530 89
2005-08-30 05:37:01 51°15.111 2°42.192 4.7 1 17.3 102530 89
2005-08-30 05:37:06 51°15.114 2°42.158 4.6 1 17.3 102530 89
2005-08-30 05:37:11 51°15.117 2°42.129 4.4 1 17.3 102530 89
2005-08-30 05:37:16 51°15.119 2°42.098 4.3 1 17.3 102530 89
2005-08-30 05:37:21 51°15.122 2°42.067 4.3 360 17.4 102530 90
2005-08-30 05:37:26 51°15.125 2°42.036 4.3 357 17.4 102530 90
2005-08-30 05:37:31 51°15.128 2°42.005 4.4 359 17.4 102530 90
2005-08-30 05:37:35 51°15.131 2°41.977 4.3 1 17.4 102530 90
2005-08-30 05:37:40 51°15.134 2°41.946 4.5 2 17.4 102530 89
2005-08-30 05:37:46 51°15.138 2°41.909 4.3 3 17.4 102530 89
2005-08-30 05:37:51 51°15.14 2°41.881 4.2 1 17.3 102530 89
2005-08-30 05:37:56 51°15.143 2°41.851 4.1 2 17.3 102530 89
2005-08-30 05:38:00 51°15.146 2°41.823 4.5 3 17.3 102530 89
2005-08-30 05:38:06 51°15.148 2°41.789 4.1 3 17.3 102530 89
2005-08-30 05:38:11 51°15.151 2°41.759 4.4 2 17.4 102530 89
2005-08-30 05:38:16 51°15.154 2°41.728 4.2 2 17.4 102530 89
2005-08-30 05:38:21 51°15.157 2°41.697 4.5 360 17.4 102530 89
2005-08-30 05:38:26 51°15.16 2°41.664 4.2 4 17.4 102530 89
2005-08-30 05:38:31 51°15.162 2°41.637 4.3 4 17.4 102530 89
2005-08-30 05:38:35 51°15.165 2°41.609 4 3 17.4 102530 89
2005-08-30 05:38:41 51°15.168 2°41.576 4.3 3 17.4 102540 89
2005-08-30 05:38:46 51°15.171 2°41.545 4.3 5 17.4 102540 89
2005-08-30 05:38:51 51°15.174 2°41.514 4.2 6 17.4 102540 89
2005-08-30 05:38:55 51°15.177 2°41.49 4.4 1 17.4 102540 89
2005-08-30 05:39:01 51°15.181 2°41.454 4 7 17.4 102530 89
2005-08-30 05:39:06 51°15.184 2°41.424 4 4 17.4 102530 89
2005-08-30 05:39:11 51°15.187 2°41.394 4.3 6 17.4 102540 89
2005-08-30 05:39:16 51°15.19 2°41.363 4.2 4 17.4 102540 89
2005-08-30 05:39:21 51°15.193 2°41.333 4 9 17.4 102540 89
2005-08-30 05:39:26 51°15.197 2°41.299 4.3 3 17.4 102540 89
2005-08-30 05:39:31 51°15.199 2°41.272 4.3 8 17.4 102540 89
2005-08-30 05:39:35 51°15.202 2°41.245 4.4 5 17.4 102540 89
2005-08-30 05:39:41 51°15.206 2°41.212 4.3 4 17.4 102530 89
2005-08-30 05:39:46 51°15.209 2°41.182 4.2 6 17.4 102530 89
2005-08-30 05:39:51 51°15.212 2°41.152 4.1 7 17.4 102540 89
2005-08-30 05:39:56 51°15.215 2°41.121 4.7 5 17.4 102540 89
2005-08-30 05:40:01 51°15.218 2°41.09 4.5 3 17.4 102540 89
2005-08-30 05:40:06 51°15.221 2°41.06 4.7 9 17.4 102540 89
2005-08-30 05:40:11 51°15.224 2°41.029 4.6 8 17.4 102540 89
2005-08-30 05:40:15 51°15.227 2°41.002 4.4 6 17.4 102540 89
2005-08-30 05:40:21 51°15.23 2°40.969 4.5 4 17.4 102540 89
2005-08-30 05:40:26 51°15.233 2°40.935 4.8 6 17.4 102540 89
2005-08-30 05:40:31 51°15.236 2°40.908 4.7 10 17.4 102540 90
2005-08-30 05:40:35 51°15.239 2°40.88 4.6 6 17.4 102540 90
2005-08-30 05:40:41 51°15.243 2°40.848 4.7 12 17.4 102540 90
2005-08-30 05:40:46 51°15.248 2°40.818 4.4 10 17.4 102540 90
2005-08-30 05:40:51 51°15.253 2°40.789 4.7 15 17.4 102540 90
2005-08-30 05:40:56 51°15.26 2°40.76 4.6 11 17.4 102540 90
2005-08-30 05:41:01 51°15.265 2°40.731 4.6 16 17.5 102540 90
2005-08-30 05:41:06 51°15.272 2°40.703 4.4 18 17.5 102540 90
2005-08-30 05:41:11 51°15.278 2°40.677 3.9 21 17.4 102540 90
2005-08-30 05:41:16 51°15.285 2°40.654 3.5 25 17.4 102540 90
2005-08-30 05:41:21 51°15.292 2°40.635 3.4 34 17.4 102540 90
2005-08-30 05:41:26 51°15.3 2°40.619 3.1 41 17.4 102540 90
2005-08-30 05:41:31 51°15.308 2°40.605 3 47 17.5 102540 90
2005-08-30 05:41:36 51°15.316 2°40.594 2.9 53 17.5 102540 90
2005-08-30 05:41:41 51°15.323 2°40.586 3.1 59 17.4 102540 90
2005-08-30 05:41:46 51°15.332 2°40.578 3.1 54 17.4 102540 90
2005-08-30 05:41:51 51°15.338 2°40.573 3.6 52 17.4 102540 90
2005-08-30 05:41:56 51°15.345 2°40.569 3.5 55 17.4 102540 90
2005-08-30 05:42:00 51°15.352 2°40.567 3.9 49 17.4 102540 90
2005-08-30 05:42:05 51°15.358 2°40.565 3.9 52 17.4 102540 90
2005-08-30 05:42:11 51°15.365 2°40.565 3.8 51 17.5 102540 90
2005-08-30 05:42:16 51°15.37 2°40.566 4 52 17.5 102540 90
2005-08-30 05:42:21 51°15.375 2°40.567 4 46 17.5 102540 90
2005-08-30 05:42:26 51°15.38 2°40.569 4 45 17.5 102540 90
2005-08-30 05:42:31 51°15.385 2°40.572 4 42 17.5 102540 90
2005-08-30 05:42:36 51°15.389 2°40.575 3.5 39 17.5 102540 90
2005-08-30 05:42:41 51°15.392 2°40.579 4.1 37 17.5 102540 90
2005-08-30 05:42:46 51°15.396 2°40.583 4.2 35 17.5 102540 90
2005-08-30 05:42:51 51°15.398 2°40.587 4.1 40 17.5 102540 90
2005-08-30 05:42:56 51°15.401 2°40.592 3.9 38 17.5 102540 90
2005-08-30 05:43:01 51°15.403 2°40.596 3.8 30 17.5 102540 90
2005-08-30 05:43:06 51°15.405 2°40.601 4 33 17.5 102540 90
2005-08-30 05:43:11 51°15.407 2°40.605 3.8 22 17.5 102540 90
2005-08-30 05:43:16 51°15.409 2°40.61 4.1 26 17.5 102540 90
2005-08-30 05:43:21 51°15.411 2°40.615 4 23 17.5 102540 90
2005-08-30 05:43:26 51°15.412 2°40.619 4.1 25 17.5 102540 90
2005-08-30 05:43:31 51°15.414 2°40.623 4.6 26 17.5 102540 90
2005-08-30 05:43:36 51°15.415 2°40.628 4.4 28 17.5 102540 90
2005-08-30 05:43:41 51°15.417 2°40.632 4.3 30 17.5 102540 90
2005-08-30 05:43:46 51°15.418 2°40.636 4.5 28 17.5 102540 90
2005-08-30 05:43:51 51°15.42 2°40.641 4 27 17.4 102540 90
2005-08-30 05:43:56 51°15.421 2°40.645 4.2 30 17.4 102540 90
2005-08-30 05:44:01 51°15.423 2°40.65 4 28 17.4 102540 90
2005-08-30 05:44:06 51°15.425 2°40.655 3.9 25 17.4 102540 90
2005-08-30 05:44:11 51°15.426 2°40.659 3.9 32 17.4 102540 90
2005-08-30 05:44:16 51°15.427 2°40.664 4 31 17.4 102540 90
2005-08-30 05:44:21 51°15.429 2°40.669 3.9 32 17.4 102540 90
2005-08-30 05:44:26 51°15.43 2°40.674 3.7 30 17.4 102540 90
2005-08-30 05:44:31 51°15.432 2°40.679 4.4 32 17.6 102530 90
2005-08-30 05:44:36 51°15.433 2°40.685 4.3 31 17.6 102530 90
2005-08-30 05:44:41 51°15.434 2°40.69 4.3 31 17.5 102540 90
2005-08-30 05:44:46 51°15.436 2°40.696 4.1 31 17.5 102540 90
2005-08-30 05:44:51 51°15.437 2°40.701 3.7 29 17.5 102530 90
2005-08-30 05:44:56 51°15.438 2°40.706 4.3 31 17.5 102530 90
2005-08-30 05:45:01 51°15.439 2°40.711 4.2 31 17.5 102540 90
2005-08-30 05:45:06 51°15.439 2°40.715 4.4 28 17.5 102540 90
2005-08-30 05:45:10 51°15.44 2°40.719 4.2 28 17.5 102540 90
2005-08-30 05:45:16 51°15.44 2°40.724 4.2 27 17.5 102540 90
2005-08-30 05:45:20 51°15.441 2°40.728 4.3 28 17.5 102540 90
2005-08-30 05:45:26 51°15.441 2°40.732 4 25 17.5 102540 90
2005-08-30 05:45:31 51°15.441 2°40.735 3.7 26 17.5 102540 90
2005-08-30 05:45:36 51°15.441 2°40.737 3.2 24 17.5 102540 90
2005-08-30 05:45:40 51°15.441 2°40.737 3 26 17.5 102540 90
2005-08-30 05:45:46 51°15.441 2°40.737 2.8 24 17.5 102540 90
2005-08-30 05:45:51 51°15.44 2°40.737 2.8 25 17.5 102530 90
2005-08-30 05:45:56 51°15.44 2°40.736 2.8 21 17.5 102530 90
2005-08-30 05:46:01 51°15.44 2°40.735 2.8 23 17.5 102540 90
2005-08-30 05:46:06 51°15.439 2°40.735 2.7 19 17.5 102540 90
2005-08-30 05:46:11 51°15.439 2°40.734 2.8 19 17.5 102530 90
2005-08-30 05:46:16 51°15.438 2°40.734 2.7 18 17.5 102530 90
2005-08-30 05:46:21 51°15.438 2°40.733 2.8 18 17.5 102540 90
2005-08-30 05:46:26 51°15.437 2°40.733 2.6 16 17.5 102540 90
2005-08-30 05:46:31 51°15.437 2°40.731 2.5 16 17.5 102540 90
2005-08-30 05:46:36 51°15.437 2°40.731 2.6 13 17.5 102540 90
2005-08-30 05:46:40 51°15.436 2°40.73 3 11 17.5 102530 90
2005-08-30 05:46:46 51°15.436 2°40.73 2.8 13 17.5 102530 90
2005-08-30 05:46:51 51°15.435 2°40.729 2.6 14 17.5 102540 90
2005-08-30 05:46:56 51°15.435 2°40.728 2.9 9 17.5 102540 90
2005-08-30 05:47:01 51°15.434 2°40.728 2.8 13 17.5 102530 90
2005-08-30 05:47:06 51°15.434 2°40.727 2.7 14 17.5 102530 90
2005-08-30 05:47:11 51°15.433 2°40.726 2.7 18 17.5 102530 89
2005-08-30 05:47:16 51°15.433 2°40.725 2.7 20 17.5 102530 89
2005-08-30 05:47:21 51°15.432 2°40.725 2.8 22 17.5 102540 89
2005-08-30 05:47:26 51°15.432 2°40.724 2.6 16 17.5 102540 89
2005-08-30 05:47:31 51°15.431 2°40.723 2.9 19 17.5 102530 89
2005-08-30 05:47:35 51°15.431 2°40.722 3.1 18 17.5 102530 89
2005-08-30 05:47:41 51°15.43 2°40.722 2.9 19 17.5 102530 90
2005-08-30 05:47:46 51°15.429 2°40.721 2.9 18 17.5 102530 90
2005-08-30 05:47:51 51°15.429 2°40.72 3 19 17.5 102530 90
2005-08-30 05:47:56 51°15.428 2°40.72 2.9 15 17.5 102530 90
2005-08-30 05:48:01 51°15.428 2°40.721 3 20 17.5 102530 90
2005-08-30 05:48:06 51°15.428 2°40.721 3.2 21 17.5 102530 90
2005-08-30 05:48:11 51°15.427 2°40.722 3.2 27 17.5 102530 89
2005-08-30 05:48:16 51°15.427 2°40.723 3.2 28 17.5 102530 89
2005-08-30 05:48:21 51°15.427 2°40.724 3.7 33 17.5 102530 89
2005-08-30 05:48:26 51°15.426 2°40.725 3.6 28 17.5 102530 89
2005-08-30 05:48:31 51°15.426 2°40.726 3.6 35 17.4 102530 89
2005-08-30 05:48:36 51°15.427 2°40.728 3.6 38 17.4 102530 89
2005-08-30 05:48:40 51°15.427 2°40.729 3.3 37 17.5 102530 89
2005-08-30 05:48:46 51°15.427 2°40.732 3.5 40 17.5 102530 89
2005-08-30 05:48:51 51°15.428 2°40.733 3.6 44 17.4 102530 89
2005-08-30 05:48:56 51°15.429 2°40.736 3.5 50 17.4 102530 89
2005-08-30 05:49:01 51°15.43 2°40.737 4 53 17.5 102530 89
2005-08-30 05:49:06 51°15.43 2°40.738 3.8 55 17.5 102530 89
2005-08-30 05:49:11 51°15.432 2°40.74 3.9 61 17.5 102530 89
2005-08-30 05:49:15 51°15.432 2°40.741 3.8 63 17.5 102530 89
2005-08-30 05:49:21 51°15.433 2°40.742 4 61 17.5 102530 89
2005-08-30 05:49:26 51°15.435 2°40.743 3.5 63 17.5 102530 89
2005-08-30 05:49:31 51°15.435 2°40.744 3.6 63 17.5 102530 89
2005-08-30 05:49:35 51°15.436 2°40.745 3.4 64 17.5 102530 89
2005-08-30 05:49:41 51°15.437 2°40.746 3.6 66 17.4 102530 88
2005-08-30 05:49:46 51°15.439 2°40.746 3.5 64 17.4 102530 88
2005-08-30 05:49:51 51°15.44 2°40.746 3.5 67 17.5 102530 88
2005-08-30 05:49:56 51°15.441 2°40.747 3.5 68 17.5 102530 88
2005-08-30 05:50:01 51°15.443 2°40.748 3.2 69 17.5 102540 88
2005-08-30 05:50:06 51°15.444 2°40.749 3.5 71 17.5 102540 88
2005-08-30 05:50:11 51°15.445 2°40.749 3.5 73 17.4 102530 88
2005-08-30 05:50:15 51°15.446 2°40.75 3.5 73 17.4 102530 88
2005-08-30 05:50:21 51°15.448 2°40.75 3.7 74 17.5 102530 88
2005-08-30 05:50:26 51°15.449 2°40.751 3.3 70 17.5 102530 88
2005-08-30 05:50:31 51°15.451 2°40.751 3.8 70 17.4 102530 88
2005-08-30 05:50:36 51°15.452 2°40.752 3.5 64 17.4 102530 88
2005-08-30 05:50:41 51°15.453 2°40.753 3.3 63 17.5 102530 88
2005-08-30 05:50:46 51°15.455 2°40.754 3.2 60 17.5 102530 88
2005-08-30 05:50:51 51°15.456 2°40.755 3.6 62 17.5 102530 87
2005-08-30 05:50:56 51°15.457 2°40.756 3.6 60 17.5 102530 87
2005-08-30 05:51:01 51°15.458 2°40.757 3.8 59 17.5 102530 87
2005-08-30 05:51:05 51°15.459 2°40.757 3.7 59 17.5 102530 87
2005-08-30 05:51:11 51°15.46 2°40.758 3.5 62 17.5 102530 88
2005-08-30 05:51:16 51°15.461 2°40.759 3.5 62 17.5 102530 88
2005-08-30 05:51:21 51°15.462 2°40.759 3.5 59 17.6 102540 88
2005-08-30 05:51:26 51°15.463 2°40.76 3.2 62 17.6 102540 88
2005-08-30 05:51:31 51°15.464 2°40.76 3.2 60 17.5 102530 88
2005-08-30 05:51:36 51°15.464 2°40.76 3 59 17.5 102530 88
2005-08-30 05:51:40 51°15.465 2°40.76 3.1 59 17.5 102540 87
2005-08-30 05:51:46 51°15.465 2°40.76 3.3 52 17.5 102540 87
2005-08-30 05:51:51 51°15.465 2°40.76 3.2 50 17.6 102540 88
2005-08-30 05:51:56 51°15.465 2°40.76 3.2 48 17.6 102540 88
2005-08-30 05:52:01 51°15.465 2°40.758 3.2 50 17.6 102540 88
2005-08-30 05:52:06 51°15.464 2°40.758 3 51 17.6 102540 88
2005-08-30 05:52:11 51°15.464 2°40.756 2.9 56 17.6 102540 87
2005-08-30 05:52:16 51°15.463 2°40.755 2.9 56 17.6 102540 87
2005-08-30 05:52:21 51°15.463 2°40.753 3 54 17.6 102530 87
2005-08-30 05:52:26 51°15.462 2°40.751 3.1 53 17.6 102530 87
2005-08-30 05:52:31 51°15.462 2°40.75 2.9 51 17.6 102540 87
2005-08-30 05:52:36 51°15.461 2°40.748 3 49 17.6 102540 87
2005-08-30 05:52:41 51°15.461 2°40.747 3 47 17.6 102540 87
2005-08-30 05:52:46 51°15.46 2°40.745 2.8 47 17.6 102540 87
2005-08-30 05:52:51 51°15.459 2°40.744 3 50 17.6 102540 87
2005-08-30 05:52:56 51°15.459 2°40.742 2.8 49 17.6 102540 87
2005-08-30 05:53:01 51°15.459 2°40.74 3.1 51 17.6 102540 87
2005-08-30 05:53:06 51°15.458 2°40.738 3.1 49 17.6 102540 87
2005-08-30 05:53:11 51°15.458 2°40.737 3.3 49 17.6 102540 87
2005-08-30 05:53:16 51°15.457 2°40.735 3.5 49 17.6 102540 87
2005-08-30 05:53:21 51°15.457 2°40.733 3.3 50 17.6 102530 87
2005-08-30 05:53:26 51°15.456 2°40.732 3 53 17.6 102530 87
2005-08-30 05:53:30 51°15.456 2°40.73 3.2 51 17.6 102540 87
2005-08-30 05:53:36 51°15.455 2°40.729 3.3 52 17.6 102540 87
2005-08-30 05:53:41 51°15.455 2°40.727 3.2 57 17.6 102540 87
2005-08-30 05:53:46 51°15.454 2°40.725 3 60 17.6 102540 87
2005-08-30 05:53:51 51°15.453 2°40.724 2.9 67 17.6 102540 87
2005-08-30 05:53:55 51°15.453 2°40.722 3 61 17.6 102540 87
2005-08-30 05:54:01 51°15.452 2°40.72 2.7 64 17.6 102540 87
2005-08-30 05:54:06 51°15.452 2°40.719 3 61 17.6 102540 87
2005-08-30 05:54:11 51°15.451 2°40.717 2.7 67 17.6 102540 87
2005-08-30 05:54:16 51°15.451 2°40.715 2.9 63 17.6 102540 87
2005-08-30 05:54:21 51°15.45 2°40.713 3 64 17.7 102540 87
2005-08-30 05:54:26 51°15.45 2°40.712 3.2 62 17.7 102540 87
2005-08-30 05:54:31 51°15.449 2°40.71 3 62 17.7 102540 87
2005-08-30 05:54:36 51°15.448 2°40.709 3.2 63 17.7 102540 87
2005-08-30 05:54:40 51°15.448 2°40.707 3.1 70 17.7 102540 87
2005-08-30 05:54:46 51°15.447 2°40.705 3.4 69 17.7 102540 87
2005-08-30 05:54:51 51°15.447 2°40.704 3.1 67 17.7 102540 87
2005-08-30 05:54:55 51°15.447 2°40.702 3.3 68 17.7 102540 87
2005-08-30 05:55:01 51°15.446 2°40.701 3.1 69 17.7 102540 87
2005-08-30 05:55:06 51°15.445 2°40.699 3.3 70 17.7 102540 87
2005-08-30 05:55:11 51°15.445 2°40.697 2.9 69 17.7 102540 86
2005-08-30 05:55:16 51°15.444 2°40.695 3.3 72 17.7 102540 86
2005-08-30 05:55:21 51°15.444 2°40.694 3.1 77 17.7 102540 86
2005-08-30 05:55:26 51°15.444 2°40.692 3.3 78 17.7 102540 86
2005-08-30 05:55:31 51°15.443 2°40.69 3.3 76 17.7 102540 86
2005-08-30 05:55:36 51°15.442 2°40.689 3 77 17.7 102540 86
2005-08-30 05:55:41 51°15.442 2°40.687 3.3 84 17.7 102540 86
2005-08-30 05:55:45 51°15.442 2°40.686 3.1 78 17.7 102540 86
2005-08-30 05:55:51 51°15.441 2°40.683 3.2 81 17.7 102540 86
2005-08-30 05:55:56 51°15.441 2°40.682 3.2 81 17.7 102540 86
2005-08-30 05:56:01 51°15.44 2°40.681 3.1 80 17.7 102540 86
2005-08-30 05:56:06 51°15.44 2°40.68 3 81 17.7 102540 86
2005-08-30 05:56:11 51°15.439 2°40.678 3.5 82 17.7 102540 86
2005-08-30 05:56:16 51°15.439 2°40.676 3.5 83 17.7 102540 86
2005-08-30 05:56:21 51°15.438 2°40.675 3.4 84 17.7 102540 86
2005-08-30 05:56:26 51°15.438 2°40.672 3.9 84 17.7 102540 86
2005-08-30 05:56:31 51°15.438 2°40.671 3.9 91 17.7 102540 86
2005-08-30 05:56:36 51°15.437 2°40.669 3.7 90 17.7 102540 86
2005-08-30 05:56:41 51°15.437 2°40.668 3.8 91 17.7 102540 86
2005-08-30 05:56:46 51°15.436 2°40.666 2.2 92 17.7 102540 86
2005-08-30 05:56:51 51°15.436 2°40.664 3.6 93 17.7 102530 86
2005-08-30 05:56:56 51°15.436 2°40.663 3.4 91 17.7 102530 86
2005-08-30 05:57:01 51°15.435 2°40.661 3.5 92 17.6 102540 85
2005-08-30 05:57:06 51°15.435 2°40.659 3.6 92 17.6 102540 85
2005-08-30 05:57:11 51°15.434 2°40.658 3.7 87 17.6 102540 85
2005-08-30 05:57:16 51°15.434 2°40.656 3.4 91 17.6 102540 85
2005-08-30 05:57:20 51°15.434 2°40.654 3.3 93 17.6 102530 84
2005-08-30 05:57:26 51°15.433 2°40.653 3.5 92 17.6 102530 84
2005-08-30 05:57:31 51°15.433 2°40.651 3.8 91 17.6 102530 84
2005-08-30 05:57:35 51°15.433 2°40.65 3.5 94 17.6 102530 84
2005-08-30 05:57:41 51°15.432 2°40.647 3.3 94 17.6 102540 85
2005-08-30 05:57:46 51°15.432 2°40.646 3.3 97 17.6 102540 85
2005-08-30 05:57:51 51°15.432 2°40.644 3.5 93 17.7 102540 85
2005-08-30 05:57:56 51°15.431 2°40.642 3 93 17.7 102540 85
2005-08-30 05:58:01 51°15.431 2°40.641 3 94 17.6 102540 84
2005-08-30 05:58:06 51°15.43 2°40.639 2.8 94 17.6 102540 84
2005-08-30 05:58:11 51°15.43 2°40.638 3.2 91 17.6 102530 84
2005-08-30 05:58:16 51°15.43 2°40.636 2.9 93 17.6 102530 84
2005-08-30 05:58:21 51°15.429 2°40.634 3.2 93 17.6 102540 84
2005-08-30 05:58:26 51°15.429 2°40.633 3.4 97 17.6 102540 84
2005-08-30 05:58:31 51°15.429 2°40.631 3.1 99 17.6 102530 84
2005-08-30 05:58:36 51°15.428 2°40.63 3.4 96 17.6 102530 84
2005-08-30 05:58:41 51°15.428 2°40.628 3 96 17.7 102530 84
2005-08-30 05:58:46 51°15.428 2°40.626 3.3 97 17.7 102530 84
2005-08-30 05:58:51 51°15.428 2°40.625 3.3 94 17.7 102530 84
2005-08-30 05:58:56 51°15.427 2°40.623 3.2 93 17.7 102530 84
2005-08-30 05:59:00 51°15.427 2°40.622 3 92 17.7 102530 85
2005-08-30 05:59:06 51°15.427 2°40.62 3.1 95 17.7 102530 85
2005-08-30 05:59:11 51°15.426 2°40.619 3.2 92 17.7 102530 85
2005-08-30 05:59:16 51°15.426 2°40.617 3.3 96 17.7 102530 85
2005-08-30 05:59:20 51°15.426 2°40.616 3.3 91 17.7 102530 85
2005-08-30 05:59:26 51°15.426 2°40.614 3.7 88 17.7 102530 85
2005-08-30 05:59:31 51°15.425 2°40.612 3 91 17.8 102530 85
2005-08-30 05:59:36 51°15.423 2°40.61 3.1 95 17.8 102530 85
2005-08-30 05:59:41 51°15.421 2°40.607 2.8 99 17.7 102530 85
2005-08-30 05:59:46 51°15.418 2°40.604 3.2 105 17.7 102530 85
2005-08-30 05:59:51 51°15.415 2°40.6 2.8 106 17.8 102530 85
2005-08-30 05:59:57 51°15.411 2°40.595 2.8 103 17.8 102530 85
2005-08-30 06:00:02 51°15.407 2°40.592 3.2 109 17.8 102530 84
2005-08-30 06:00:07 51°15.403 2°40.588 3 104 17.8 102530 84
2005-08-30 06:00:12 51°15.4 2°40.584 2.8 100 17.8 102530 85
2005-08-30 06:00:16 51°15.398 2°40.581 2.9 100 17.8 102530 85
2005-08-30 06:00:22 51°15.395 2°40.577 2.9 98 17.8 102530 84
2005-08-30 06:00:26 51°15.393 2°40.575 2.9 94 17.8 102530 84
2005-08-30 06:00:31 51°15.391 2°40.573 3 90 17.8 102540 84
2005-08-30 06:00:35 51°15.39 2°40.571 3.3 85 17.8 102540 84
2005-08-30 06:00:41 51°15.39 2°40.569 3.2 70 17.8 102530 84
2005-08-30 06:00:46 51°15.389 2°40.568 3.4 64 17.8 102530 84
2005-08-30 06:00:51 51°15.389 2°40.567 3.5 57 17.8 102530 84
2005-08-30 06:00:56 51°15.389 2°40.566 3.8 64 17.8 102530 84
2005-08-30 06:01:01 51°15.388 2°40.565 3.5 61 17.8 102530 84
2005-08-30 06:01:06 51°15.388 2°40.564 3.7 62 17.8 102530 84
2005-08-30 06:01:11 51°15.388 2°40.563 3.4 59 17.8 102530 84
2005-08-30 06:01:16 51°15.387 2°40.561 3.3 57 17.8 102530 84
2005-08-30 06:01:21 51°15.386 2°40.56 3.1 59 17.8 102530 84
2005-08-30 06:01:26 51°15.386 2°40.558 3.1 62 17.8 102530 84
2005-08-30 06:01:31 51°15.385 2°40.556 2.9 61 17.8 102530 84
2005-08-30 06:01:36 51°15.384 2°40.552 3.3 56 17.8 102530 84
2005-08-30 06:01:41 51°15.383 2°40.549 2.5 62 17.8 102530 84
2005-08-30 06:01:46 51°15.381 2°40.545 2.8 65 17.8 102530 84
2005-08-30 06:01:51 51°15.38 2°40.542 2.9 63 17.8 102530 84
2005-08-30 06:01:56 51°15.379 2°40.539 3.3 63 17.8 102530 84
2005-08-30 06:01:59 51°15.378 2°40.537 2.9 63 17.8 102540 84
2005-08-30 06:02:06 51°15.376 2°40.532 3.1 62 17.8 102540 84
2005-08-30 06:02:11 51°15.375 2°40.529 2.9 61 17.7 102530 83
2005-08-30 06:02:16 51°15.374 2°40.526 3.1 60 17.7 102530 83
2005-08-30 06:02:21 51°15.373 2°40.523 2.9 61 17.7 102530 83
2005-08-30 06:02:26 51°15.372 2°40.52 3 62 17.7 102530 83
2005-08-30 06:02:31 51°15.371 2°40.517 3 63 17.7 102540 83
2005-08-30 06:02:36 51°15.369 2°40.514 3.1 64 17.7 102540 83
2005-08-30 06:02:41 51°15.368 2°40.511 2.9 67 17.7 102530 83
2005-08-30 06:02:46 51°15.367 2°40.508 2.8 68 17.7 102530 83
2005-08-30 06:02:51 51°15.366 2°40.505 2.7 68 17.7 102530 83
2005-08-30 06:02:56 51°15.365 2°40.502 2.7 69 17.7 102530 83
2005-08-30 06:03:01 51°15.363 2°40.499 2.8 64 17.7 102530 83
2005-08-30 06:03:06 51°15.362 2°40.496 2.8 69 17.7 102530 83
2005-08-30 06:03:10 51°15.361 2°40.493 3.1 66 17.7 102530 83
2005-08-30 06:03:16 51°15.36 2°40.491 3.4 67 17.7 102530 83
2005-08-30 06:03:21 51°15.359 2°40.488 3 67 17.7 102530 83
2005-08-30 06:03:26 51°15.357 2°40.485 3.2 69 17.7 102530 83
2005-08-30 06:03:31 51°15.356 2°40.482 3 66 17.7 102530 83
2005-08-30 06:03:36 51°15.355 2°40.479 2.8 72 17.7 102530 83
2005-08-30 06:03:41 51°15.353 2°40.476 3.1 78 17.7 102530 83
2005-08-30 06:03:46 51°15.351 2°40.473 2.5 80 17.7 102530 83
2005-08-30 06:03:51 51°15.35 2°40.469 2.8 71 17.7 102530 83
2005-08-30 06:03:56 51°15.348 2°40.466 3 70 17.7 102530 83
2005-08-30 06:04:01 51°15.347 2°40.463 3 69 17.7 102530 83
2005-08-30 06:04:06 51°15.345 2°40.461 3.3 70 17.7 102530 83
2005-08-30 06:04:11 51°15.344 2°40.458 3.1 66 17.7 102530 83
2005-08-30 06:04:16 51°15.343 2°40.455 3.1 67 17.7 102530 83
2005-08-30 06:04:21 51°15.342 2°40.453 3.1 66 17.7 102530 83
2005-08-30 06:04:26 51°15.341 2°40.45 3.1 69 17.7 102530 83
2005-08-30 06:04:31 51°15.34 2°40.448 3 68 17.7 102530 82
2005-08-30 06:04:36 51°15.339 2°40.446 3.1 65 17.7 102530 82
2005-08-30 06:04:41 51°15.339 2°40.445 3.4 62 17.7 102530 82
2005-08-30 06:04:46 51°15.338 2°40.443 3.6 58 17.7 102530 82
2005-08-30 06:04:51 51°15.338 2°40.443 3.6 50 17.7 102530 83
2005-08-30 06:04:56 51°15.339 2°40.443 3.8 48 17.7 102530 83
2005-08-30 06:05:01 51°15.339 2°40.444 4.2 38 17.6 102530 82
2005-08-30 06:05:06 51°15.339 2°40.445 4.2 36 17.6 102530 82
2005-08-30 06:05:11 51°15.34 2°40.446 4.2 31 17.7 102530 82
2005-08-30 06:05:16 51°15.34 2°40.448 4.3 30 17.7 102530 82
2005-08-30 06:05:20 51°15.34 2°40.45 4.3 26 17.7 102530 82
2005-08-30 06:05:26 51°15.341 2°40.452 4.3 27 17.7 102530 82
2005-08-30 06:05:31 51°15.341 2°40.454 4.2 28 17.6 102530 82
2005-08-30 06:05:36 51°15.342 2°40.455 4.3 26 17.6 102530 82
2005-08-30 06:05:40 51°15.342 2°40.457 4.3 28 17.6 102530 82
2005-08-30 06:05:46 51°15.342 2°40.458 4.4 29 17.6 102530 82
2005-08-30 06:05:51 51°15.342 2°40.46 4.4 29 17.6 102530 82
2005-08-30 06:05:56 51°15.343 2°40.461 4.3 31 17.6 102530 82
2005-08-30 06:06:01 51°15.343 2°40.462 4.3 30 17.6 102530 82
2005-08-30 06:06:06 51°15.343 2°40.464 4.5 31 17.6 102530 82
2005-08-30 06:06:11 51°15.343 2°40.464 4.4 32 17.6 102530 81
2005-08-30 06:06:16 51°15.344 2°40.465 4.2 30 17.6 102530 81
2005-08-30 06:06:21 51°15.343 2°40.467 4.3 37 17.6 102530 81
2005-08-30 06:06:26 51°15.344 2°40.468 4 29 17.6 102530 81
2005-08-30 06:06:31 51°15.344 2°40.468 3.8 34 17.6 102530 81
2005-08-30 06:06:36 51°15.344 2°40.469 3.7 31 17.6 102530 81
2005-08-30 06:06:41 51°15.344 2°40.47 3.9 30 17.6 102530 81
2005-08-30 06:06:47 51°15.344 2°40.471 4 30 17.6 102530 81
2005-08-30 06:06:51 51°15.344 2°40.471 4.2 30 17.6 102530 81
2005-08-30 06:06:56 51°15.345 2°40.471 4.1 28 17.6 102530 81
2005-08-30 06:07:01 51°15.345 2°40.472 4 31 17.6 102530 81
2005-08-30 06:07:06 51°15.345 2°40.473 4 28 17.6 102530 81
2005-08-30 06:07:11 51°15.345 2°40.473 4.1 32 17.6 102530 81
2005-08-30 06:07:16 51°15.344 2°40.473 4 33 17.6 102530 81
2005-08-30 06:07:21 51°15.344 2°40.474 4.1 33 17.6 102540 81
2005-08-30 06:07:26 51°15.344 2°40.474 4.2 32 17.6 102540 81
2005-08-30 06:07:31 51°15.344 2°40.475 4 31 17.6 102530 81
2005-08-30 06:07:36 51°15.344 2°40.476 4 33 17.6 102530 81
2005-08-30 06:07:41 51°15.344 2°40.476 3.9 31 17.6 102530 81
2005-08-30 06:07:46 51°15.344 2°40.476 4.1 31 17.6 102530 81
2005-08-30 06:07:51 51°15.344 2°40.477 4.1 25 17.6 102530 81
2005-08-30 06:07:56 51°15.344 2°40.478 4.6 25 17.6 102530 81
2005-08-30 06:08:01 51°15.345 2°40.48 4.6 26 17.7 102530 82
2005-08-30 06:08:06 51°15.345 2°40.483 4.9 29 17.7 102530 82
2005-08-30 06:08:10 51°15.345 2°40.486 4.9 24 17.7 102530 82
2005-08-30 06:08:16 51°15.346 2°40.491 4.9 27 17.7 102530 82
2005-08-30 06:08:21 51°15.347 2°40.495 5.3 28 17.7 102530 82
2005-08-30 06:08:26 51°15.348 2°40.499 5.1 27 17.7 102530 82
2005-08-30 06:08:31 51°15.349 2°40.504 5.3 25 17.7 102530 82
2005-08-30 06:08:36 51°15.35 2°40.509 5.6 25 17.7 102530 82
2005-08-30 06:08:39 51°15.351 2°40.513 5.8 26 17.7 102540 82
2005-08-30 06:08:46 51°15.353 2°40.521 6 26 17.7 102540 82
2005-08-30 06:08:51 51°15.354 2°40.527 6.1 26 17.7 102530 82
2005-08-30 06:08:56 51°15.356 2°40.534 6.2 27 17.7 102530 82
2005-08-30 06:09:01 51°15.357 2°40.541 5.7 23 17.7 102530 82
2005-08-30 06:09:06 51°15.359 2°40.547 5.8 23 17.7 102530 82
2005-08-30 06:09:11 51°15.361 2°40.554 6 25 17.6 102530 82
2005-08-30 06:09:16 51°15.363 2°40.562 6.2 26 17.6 102530 82
2005-08-30 06:09:20 51°15.365 2°40.568 6.1 28 17.6 102530 81
2005-08-30 06:09:26 51°15.368 2°40.577 6 25 17.6 102530 81
2005-08-30 06:09:31 51°15.37 2°40.584 5.7 24 17.6 102530 81
2005-08-30 06:09:35 51°15.371 2°40.591 5.6 22 17.6 102530 81
2005-08-30 06:09:41 51°15.373 2°40.6 5.7 23 17.6 102530 81
2005-08-30 06:09:46 51°15.375 2°40.607 5.9 21 17.6 102530 81
2005-08-30 06:09:51 51°15.377 2°40.614 5.6 23 17.6 102530 82
2005-08-30 06:09:56 51°15.378 2°40.62 5.4 20 17.6 102530 82
2005-08-30 06:10:01 51°15.38 2°40.626 5.5 22 17.7 102530 82
2005-08-30 06:10:06 51°15.381 2°40.632 5.4 21 17.7 102530 82
2005-08-30 06:10:11 51°15.382 2°40.638 5.4 22 17.6 102530 82
2005-08-30 06:10:16 51°15.383 2°40.643 5.4 19 17.6 102530 82
2005-08-30 06:10:21 51°15.384 2°40.648 5.3 22 17.7 102530 82
2005-08-30 06:10:26 51°15.385 2°40.653 5 22 17.7 102530 82
2005-08-30 06:10:31 51°15.386 2°40.658 5.1 21 17.6 102530 82
2005-08-30 06:10:36 51°15.386 2°40.663 4.9 19 17.6 102530 82
2005-08-30 06:10:41 51°15.387 2°40.668 4.8 17 17.7 102530 82
2005-08-30 06:10:46 51°15.387 2°40.672 4.8 18 17.7 102530 82
2005-08-30 06:10:51 51°15.387 2°40.677 4.7 19 17.6 102530 82
2005-08-30 06:10:56 51°15.387 2°40.681 4.5 17 17.6 102530 82
2005-08-30 06:11:01 51°15.387 2°40.685 4.6 17 17.7 102530 82
2005-08-30 06:11:06 51°15.388 2°40.688 4.6 17 17.7 102530 82
2005-08-30 06:11:11 51°15.388 2°40.692 4.6 17 17.7 102540 82
2005-08-30 06:11:16 51°15.388 2°40.696 4.4 14 17.7 102540 82
2005-08-30 06:11:20 51°15.387 2°40.699 4.4 15 17.7 102530 82
2005-08-30 06:11:26 51°15.387 2°40.703 4.6 12 17.7 102530 82
2005-08-30 06:11:31 51°15.387 2°40.707 5 15 17.7 102540 82
2005-08-30 06:11:36 51°15.387 2°40.711 4.6 13 17.7 102540 82
2005-08-30 06:11:41 51°15.387 2°40.715 5 18 17.7 102530 83
2005-08-30 06:11:46 51°15.388 2°40.719 5.3 23 17.7 102530 83
2005-08-30 06:11:51 51°15.388 2°40.724 5.1 30 17.7 102540 83
2005-08-30 06:11:56 51°15.389 2°40.727 5 34 17.7 102540 83
2005-08-30 06:12:01 51°15.391 2°40.731 5 39 17.7 102540 82
2005-08-30 06:12:06 51°15.393 2°40.735 4.9 44 17.7 102540 82
2005-08-30 06:12:11 51°15.394 2°40.738 5 50 17.7 102530 82
2005-08-30 06:12:16 51°15.396 2°40.741 4.7 45 17.7 102530 82
2005-08-30 06:12:21 51°15.398 2°40.743 4.7 51 17.7 102530 82
2005-08-30 06:12:26 51°15.401 2°40.746 4.7 50 17.7 102530 82
2005-08-30 06:12:31 51°15.403 2°40.748 4.5 53 17.6 102530 81
2005-08-30 06:12:36 51°15.405 2°40.749 4.3 55 17.6 102530 81
2005-08-30 06:12:41 51°15.407 2°40.751 4.7 54 17.6 102530 82
2005-08-30 06:12:46 51°15.409 2°40.753 4.6 56 17.6 102530 82
2005-08-30 06:12:51 51°15.411 2°40.755 4.8 55 17.6 102530 82
2005-08-30 06:12:56 51°15.414 2°40.756 4.8 54 17.6 102530 82
2005-08-30 06:13:01 51°15.416 2°40.758 4.7 56 17.7 102530 83
2005-08-30 06:13:06 51°15.418 2°40.759 4.8 57 17.7 102530 83
2005-08-30 06:13:11 51°15.42 2°40.761 4.6 59 17.7 102530 82
2005-08-30 06:13:16 51°15.422 2°40.761 4.5 60 17.7 102530 82
2005-08-30 06:13:21 51°15.424 2°40.762 4.5 67 17.6 102530 82
2005-08-30 06:13:26 51°15.426 2°40.763 4.1 69 17.6 102530 82
2005-08-30 06:13:31 51°15.428 2°40.763 3.7 70 17.6 102530 82
2005-08-30 06:13:36 51°15.43 2°40.763 3.6 71 17.6 102530 82
2005-08-30 06:13:41 51°15.432 2°40.764 3.3 77 17.6 102530 82
2005-08-30 06:13:47 51°15.435 2°40.764 3.6 76 17.6 102530 82
2005-08-30 06:13:51 51°15.436 2°40.764 3.6 75 17.6 102530 82
2005-08-30 06:13:55 51°15.438 2°40.764 4.1 76 17.6 102530 82
2005-08-30 06:14:01 51°15.441 2°40.764 3.6 73 17.6 102530 82
2005-08-30 06:14:06 51°15.442 2°40.764 3.8 73 17.6 102530 82
2005-08-30 06:14:11 51°15.444 2°40.764 4.4 64 17.6 102540 83
2005-08-30 06:14:16 51°15.446 2°40.765 4.1 61 17.6 102540 83
2005-08-30 06:14:21 51°15.448 2°40.765 4 66 17.6 102540 82
2005-08-30 06:14:26 51°15.449 2°40.766 4.1 65 17.6 102540 82
2005-08-30 06:14:31 51°15.451 2°40.766 4.4 64 17.6 102530 82
2005-08-30 06:14:34 51°15.452 2°40.766 4.2 63 17.6 102530 82
2005-08-30 06:14:41 51°15.454 2°40.767 4 66 17.6 102530 82
2005-08-30 06:14:46 51°15.455 2°40.767 3.6 68 17.6 102530 82
2005-08-30 06:14:51 51°15.456 2°40.767 3.6 68 17.6 102540 83
2005-08-30 06:14:56 51°15.457 2°40.767 3.7 68 17.6 102540 83
2005-08-30 06:15:01 51°15.457 2°40.766 3.8 66 17.6 102530 82
2005-08-30 06:15:06 51°15.458 2°40.766 4 66 17.6 102530 82
2005-08-30 06:15:11 51°15.458 2°40.765 3.6 67 17.6 102540 83
2005-08-30 06:15:16 51°15.458 2°40.765 3.9 66 17.6 102540 83
2005-08-30 06:15:21 51°15.458 2°40.764 4 61 17.6 102540 83